Вернуться в каталог

COSMOS 1275 DEB

АктивенPO
NORAD 13816·DEBRIS·🇷🇺 Russia

Запущен Jun 4, 1981 с Plesetsk Cosmodrome

Loading…

Ближайшие Пролёты (ближайшие 24 часа)

TLE

СвежийSource: Space-Track

Эпоха: Sep 14, 2026, 07:05 UTC

1 13816U 81053HL  26257.29564144  .00002288  00000-0  17237-2 0  9995
2 13816  82.9859   4.7314 0148678 287.6276  99.6512 13.88859659172658

Отслеживайте COSMOS 1275 DEB в реальном времени с AllMySat

Download on the App Store